This is the latest recevied weather packets stored in our database for station/object HS3UAA-1. If no packets are shown the sender has not sent any weather packets the latest 10 day(s).
| Time | Temp. | Humidity | Pressure | Rain* | Wind** | Luminosity | Snow |
|---|---|---|---|---|---|---|---|
| 1777981110 | 32.78° C | 42% | 994 hPa | - | - | 0 W/m² | - |
| 1777980788 | 32.78° C | 43% | 994 hPa | - | - | 0 W/m² | - |
| 1777980250 | 32.22° C | 43% | 994 hPa | - | - | 0 W/m² | - |
| 1777979928 | 32.22° C | 43% | 994 hPa | - | - | 0 W/m² | - |
| 1777979606 | 31.67° C | 42% | 994 hPa | - | - | 0 W/m² | - |
| 1777979284 | 31.67° C | 42% | 994 hPa | - | - | 0 W/m² | - |
| 1777978962 | 31.11° C | 42% | 994 hPa | - | - | 0 W/m² | - |
| 1777978640 | 30.56° C | 42% | 994 hPa | - | - | 0 W/m² | - |
| 1777978318 | 29.44° C | 44% | 994 hPa | - | - | 0 W/m² | - |
| 1777977996 | 28.33° C | 47% | 994 hPa | - | - | 0 W/m² | - |
| 1777977674 | 28.89° C | 48% | 994 hPa | - | - | 0 W/m² | - |
| 1777977352 | 28.89° C | 45% | 994 hPa | - | - | 0 W/m² | - |
| 1777977030 | 28.89° C | 45% | 994 hPa | - | - | 0 W/m² | - |
| 1777976708 | 28.33° C | 48% | 994 hPa | - | - | 0 W/m² | - |
| 1777976385 | 28.89° C | 46% | 994 hPa | - | - | 0 W/m² | - |
| 1777976063 | 28.33° C | 44% | 994 hPa | - | - | 0 W/m² | - |
| 1777975741 | 28.89° C | 47% | 994 hPa | - | - | 0 W/m² | - |
| 1777975419 | 28.89° C | 47% | 994 hPa | - | - | 0 W/m² | - |
| 1777975098 | 28.89° C | 46% | 994 hPa | - | - | 0 W/m² | - |
| 1777974775 | 28.33° C | 44% | 994 hPa | - | - | 0 W/m² | - |
| 1777974453 | 28.33° C | 47% | 994 hPa | - | - | 0 W/m² | - |
| 1777974131 | 28.89° C | 47% | 994 hPa | - | - | 0 W/m² | - |
| 1777973809 | 28.89° C | 47% | 994 hPa | - | - | 0 W/m² | - |
| 1777973311 | 28.89° C | 48% | 994 hPa | - | - | 0 W/m² | - |
| 1777972989 | 28.33° C | 48% | 994 hPa | - | - | 0 W/m² | - |
* Rain since midnight (hover to see other rain measurements)
** Current wind speed in m/s (hover to see current wind gust speed)